Downstream station:
SHEF ID: BZRK1 SF COTTONWOOD R NR BAZAAR, KS
STATION TYPE:
PRECIP PRECIP(A) STAGE RIV-FLOW BAT-LOAD
in in ft cfs volt
Ccp-Rev Ccp-Rev Ccp-Rev Ccp-Rev Ccp-Rev
(US/Central)
09/13 00:00 0.00 ---- 6.89 32 12.77
09/13 01:00 0.00 ---- 6.89 32 12.77
09/13 02:00 0.00 ---- 6.89 32 12.71
09/13 03:00 0.00 ---- 6.89 32 12.71
09/13 04:00 0.00 ---- 6.89 32 12.71
09/13 05:00 0.00 ---- 6.89 32 12.65
09/13 06:00 0.00 ---- 6.88 31 12.65
09/13 07:00 0.00 ---- 6.89 32 12.65
09/13 08:00 0.00 ---- 6.90 33 12.65
09/13 09:00 0.00 ---- 6.88 31 13.30
09/13 10:00 0.00 ---- 6.89 32 13.65
09/13 11:00 0.00 ---- 6.88 31 13.88
09/13 12:00 0.00 ---- 6.87 31 13.83
09/13 13:00 0.00 ---- 6.86 30 13.77
09/13 14:00 0.00 ---- 6.85 29 13.71
09/13 15:00 0.00 ---- 6.86 30 13.65
09/13 16:00 0.00 ---- 6.87 31 13.59
09/13 17:00 0.00 ---- 6.89 32 13.59
09/13 18:00 0.00 ---- 6.90 33 13.59
09/13 19:00 0.00 ---- 6.90 33 13.59
09/13 20:00 0.00 ---- 6.89 32 13.00
09/13 21:00 0.00 ---- 6.88 31 12.83
09/13 22:00 0.00 ---- 6.87 31 12.77
09/13 23:00 0.00 ---- 6.87 31 12.77